Location: Colorado Springs
(38.8340°N, 104.8210°W)
Time: 11:00:46
(UTC-06:00)

Envisat - Visible Passes

Search period start: 19 August 2018 00:00
Search period end: 29 August 2018 00:00
Orbit: 764 x 766 km, 98.2° (Epoch: 19 August)

Date Brightness Start Highest point End Pass type
(mag) Time Alt. Az. Time Alt. Az. Time Alt. Az.
19 Aug 4.0 20:35:03 10° S 20:39:55 48° W 20:44:50 10° NNW visible
20 Aug 5.9 21:41:09 10° WSW 21:42:42 11° W 21:44:15 10° WNW visible
21 Aug 5.1 21:01:23 10° SSW 21:05:37 27° W 21:09:53 10° NW visible
22 Aug 3.6 20:23:43 10° S 20:28:44 61° W 20:33:46 10° NNW visible
23 Aug 5.7 21:28:36 10° SW 21:31:24 15° W 21:34:14 10° WNW visible
24 Aug 4.7 20:49:49 10° SSW 20:54:23 34° W 20:58:59 10° NNW visible
25 Aug 3.2 20:12:29 10° S 20:17:33 79° WSW 20:22:39 10° NNW visible
26 Aug 5.5 21:16:34 10° SW 21:20:07 19° W 21:23:42 10° NW visible
27 Aug 4.2 20:38:21 10° S 20:43:09 43° W 20:48:00 10° NNW visible
28 Aug 3.0 20:01:19 10° SSE 20:06:23 82° ENE 20:11:29 10° N visible
